Location: Ames Road Church
(32.6229°N, 96.7947°W)
Time: 01:14:53
(UTC+00:00)

Daily predictions for brighter satellites

Satellite Brightness Start Highest point End
(mag) Time Altitude Azimuth Time Altitude Azimuth Time Altitude Azimuth
Cosmos 1697 Rocket 3.1 01:42:15 10° S 01:47:34 43° ESE 01:52:54 10° NE
Cosmos 841 Rocket 3.6 01:43:19 10° NNW 01:48:29 89° WSW 01:53:40 10° SSE
Gbstr 26 Del rocket 4.3 01:44:29 10° NW 01:51:59 67° NE 01:58:11 10° ESE
Cosmos 2098 Rocket 2.0 01:50:10 10° N 01:53:09 89° ESE 01:55:59 10° S
Cosmos 2360 4.5 01:48:45 10° S 01:54:08 47° ESE 01:59:33 10° NNE
CSL-04 Debris 4.3 01:49:56 10° SSE 01:55:14 59° ENE 02:00:33 10° N
ATLAS 2AS CENTAUR R/B 3.7 01:51:44 10° SSE 01:58:14 30° ESE 02:04:42 10° NE
deb Chang Zheng 4 3.4 01:54:53 10° SSE 01:59:00 88° ENE 02:03:08 10° NNW
CZ-4B R/B 3.1 01:57:29 10° ENE 01:59:08 13° E 02:00:45 10° SE
Cosmos 2061 Rocket 4.4 01:53:37 10° SSW 01:59:47 70° W 02:05:57 10° N
Cosmos 1151 Rocket 3.0 01:56:33 10° S 02:00:47 69° E 02:05:01 10° NNE
USA 186 1.2 01:59:42 10° SSE 02:02:05 51° ENE 02:04:25 10° N
NOSS 3-4 (A) 3.5 01:57:35 10° SW 02:03:12 75° WNW 02:09:06 10° NNE
NOSS 3-4 (C) 3.5 01:57:36 10° SW 02:03:15 76° WNW 02:09:11 10° NNE
Cosmos 2297 Rocket 2.7 01:58:32 10° N 02:03:54 43° ENE 02:09:13 10° SE
OBJECT-B 0.8 02:02:12 10° S 02:05:05 70° W 02:07:59 10° NNW
Cosmos 1340 4.0 02:06:26 10° SE 02:09:12 20° E 02:11:59 10° NE
CZ-4 R/B 3.1 02:05:52 10° SSW 02:09:28 33° W 02:13:09 10° NNW
Cosmos 968 Rocket 4.0 02:05:17 10° SSW 02:10:23 64° WNW 02:15:29 10° N
Meteor 1-5 Rocket 4.1 02:07:25 10° N 02:12:46 84° E 02:18:03 10° S
Resurs 1-3 4.2 02:09:06 10° SE 02:13:11 40° ENE 02:17:17 10° N
NOSS 3-2 (A) 4.4 02:05:57 10° NNW 02:13:59 79° WSW 02:22:52 10° SSE
Cosmos 1666 Rocket 3.8 02:10:51 10° N 02:15:09 50° E 02:19:28 10° SSE
SJ-6B 2.7 02:11:57 10° SSE 02:15:46 75° ENE 02:19:32 10° N
Cosmos 1805 Rocket 4.3 02:11:27 10° NNW 02:15:47 54° W 02:20:05 10° S
H-2A R/B 2.5 02:12:16 10° SSE 02:16:41 80° ENE 02:20:58 10° N
SJ 16-02 2.9 02:15:43 13° SE 02:17:36 17° E 02:20:23 10° ENE
Cosmos 1315 Rocket 3.0 02:16:32 10° N 02:20:30 53° E 02:24:06 12° SSE
Cosmos 1633 Rocket 3.3 02:18:52 10° N 02:23:07 49° E 02:26:50 13° SSE
Meteor 1-10 Rocket 4.1 02:18:02 10° S 02:23:33 80° E 02:29:09 10° N
Okean O Rocket 4.3 02:23:10 10° SW 02:25:43 15° W 02:28:17 10° WNW
Cosmos 1743 4.3 02:26:24 10° NNE 02:29:07 19° ENE 02:30:10 17° E
Sich 1 4.1 02:25:39 10° NNW 02:29:48 46° W 02:33:54 10° SSW
Meteor 1-27 Rocket 3.9 02:27:04 10° S 02:32:39 57° E 02:38:22 10° NNE
NOSS 3-2 (C) 4.2 02:25:15 10° NNW 02:33:17 82° ENE 02:40:53 15° SSE
Cosmos 1470 Rocket 4.2 02:30:44 10° NNE 02:34:44 37° E 02:37:01 21° SE
Cosmos 44 3.8 02:32:59 10° NW 02:37:08 47° WSW 02:40:58 12° S
OAO 3 Rocket 3.5 02:32:31 10° WNW 02:37:24 69° N 02:41:32 15° E
Cosmos 2278 4.4 02:32:45 10° SSE 02:37:44 33° ESE 02:42:43 10° NE
CENTAUR R/B 3.7 02:29:38 10° NW 02:38:12 65° WSW 02:47:06 10° SSE
Cosmos 2208 Rocket 4.0 02:34:37 10° NNW 02:40:04 84° ENE 02:44:20 16° SSE
Resurs 01 Rocket 2.2 02:39:25 22° SE 02:41:44 40° ENE 02:45:51 10° N
Cosmos 1515 Rocket 3.5 02:37:42 10° S 02:41:57 62° E 02:46:17 10° NNE
Ariane Rocket 3.8 02:40:49 21° ESE 02:43:24 34° ENE 02:47:57 10° N
Cosmos 2219 3.4 02:38:03 10° N 02:43:35 55° ENE 02:47:00 23° SE
Cosmos 2034 Rocket 4.5 02:42:42 18° SSE 02:46:54 40° E 02:52:44 10° NNE
IGS 5A 3.7 02:44:13 12° S 02:47:57 66° W 02:52:04 10° NNW
Landsat 7 3.7 02:48:06 18° SSE 02:51:39 89° ENE 02:56:23 10° NNW
Cosmos 921 Rocket 4.5 02:48:14 10° NNE 02:51:47 22° ENE 02:52:48 21° E
PSLV R/B 4.1 02:47:49 10° N 02:51:50 70° WNW 02:55:49 10° SSW
Cosmos 2263 Rocket 4.0 02:49:04 10° NNE 02:52:11 15° ENE 02:54:16 12° E
USA 238 DEB 4.1 02:45:47 10° NNW 02:53:16 77° WSW 02:59:08 19° SSE
USA 238 4.1 02:45:54 10° NNW 02:53:23 77° WSW 02:59:14 19° SSE
Okean-O 4.3 02:49:42 10° SSW 02:53:35 30° W 02:57:29 10° NW
SWIFT 4.2 02:51:35 10° SW 02:53:45 15° S 02:53:45 15° S
Meteor 1-11 Rocket 3.8 02:48:19 10° N 02:54:18 72° E 02:58:21 21° SSE
Cosmos 2228 Rocket 4.1 02:58:45 27° E 02:59:08 28° E 03:02:59 10° NNE
Aureole 1 Rocket 4.1 02:59:16 10° SW 03:02:27 32° WNW 03:05:16 10° N
Okean 1 3.7 03:02:18 39° ESE 03:02:48 41° E 03:06:35 10° NNE
Cosmos 2344 3.8 02:55:31 10° SW 03:03:26 70° WNW 03:10:49 10° NNE
IRAS Rocket 4.3 02:59:20 10° NNE 03:04:58 81° WNW 03:10:35 10° SSW
RESURS DK-1 2.2 03:04:51 20° S 03:07:33 71° ESE 03:11:39 10° NNE
Cosmos 1536 2.7 03:03:33 10° N 03:07:35 78° E 03:08:52 42° SSE
Cosmos 1184 Rocket 3.1 03:07:32 31° SW 03:08:41 56° W 03:11:39 10° N
Cosmos 2227 Rocket 2.3 03:05:31 10° NNW 03:11:10 73° WSW 03:14:18 27° S
ASTRO E2 2.8 03:07:26 10° W 03:11:14 51° SSW 03:11:34 49° S
Cosmos 1980 Rocket 2.5 03:07:01 10° SSW 03:12:36 67° WNW 03:18:13 10° NNE
SL-4 R/B 2.8 03:08:27 10° NW 03:12:46 44° NE 03:13:57 35° E
Cosmos 1777 Rocket 3.9 03:13:05 29° S 03:15:39 61° ESE 03:20:49 10° NNE
Cosmos 1354 Rocket 4.2 03:12:12 10° SSW 03:17:27 75° WNW 03:22:44 10° NNE
H-2A R/B 4.2 03:14:46 10° NNW 03:18:07 25° WNW 03:21:28 10° SW
SPOT 3 Rocket 3.9 03:18:44 39° ESE 03:20:01 48° ENE 03:24:57 10° N
Cosmos 2322 Rocket 3.8 03:23:15 19° ENE 03:23:15 19° ENE 03:25:38 10° NE
IRS-1A Rocket 4.4 03:21:27 28° S 03:24:31 72° WSW 03:30:15 10° NNW
Cosmos 1464 Rocket 4.5 03:22:47 10° SSW 03:28:54 58° W 03:34:58 10° N
Meteor 2-4 Rocket 4.1 03:28:29 41° ESE 03:29:07 42° E 03:34:28 10° NNE
Cosmos 389 Rocket 2.7 03:26:52 10° NNW 03:30:20 63° W 03:30:24 63° WSW
CZ-4B R/B 4.0 03:28:23 10° NNW 03:30:38 18° WNW 03:32:51 10° WSW
Meteor 1-19 Rocket 4.0 03:29:12 30° S 03:31:58 88° W 03:37:23 10° N
MetOp-B 4.1 03:38:01 47° S 03:39:35 82° WSW 03:44:58 10° NNW
Helios 1A Rocket 3.4 03:43:33 47° NE 03:43:33 47° NE 03:46:49 10° N
Milstar 3 Cent rocket 4.3 03:29:11 10° W 03:44:07 36° SW 03:47:54 28° S
Cosmos 2297 Rocket 4.2 03:43:30 10° NW 03:47:32 20° W 03:51:08 11° SW
ATLAS 2AS CENTAUR R/B 3.7 03:41:17 10° SW 03:48:52 53° NW 03:56:20 10° NNE
Cosmos 1634 Rocket 4.0 03:48:30 55° SE 03:49:30 62° E 03:55:36 10° NNE
Cosmos 1092 Rocket 4.0 03:43:56 10° N 03:49:59 57° E 03:50:44 53° ESE
Nadezhda 4 Rocket 4.0 03:44:16 10° N 03:50:27 76° W 03:52:28 45° S
USA 81 4.4 03:51:32 49° ENE 03:51:32 49° ENE 03:56:14 10° NNE
Meteor 2-14 Rocket 4.3 03:45:16 10° N 03:51:22 90° NNE 03:52:52 55° S
ERS-1 Rocket 3.3 03:52:28 51° ENE 03:52:28 51° ENE 03:57:14 10° N
SJ 16-02 3.1 03:52:33 13° SW 03:55:50 30° WNW 03:59:43 10° N
OAO 1 4.3 03:51:02 10° WSW 03:56:33 80° SSE 03:56:43 79° SE
Meteor 2-9 Rocket 4.1 03:53:03 10° N 03:58:46 82° W 03:59:35 66° SSW
SL-16 R/B 2.0 04:00:33 75° SE 04:00:44 76° ESE 04:06:24 10° NNE
CZ-2C R/B 3.7 03:56:04 10° NNE 04:00:44 84° NNW 04:00:44 84° NNW
Cosmos 1346 Rocket 4.2 04:11:56 36° N 04:11:56 36° N 04:14:23 10° N
Cosmos 2026 Rocket 3.8 04:08:39 10° N 04:14:52 79° E 04:15:15 76° SE
Timation 2 Rocket 4.3 04:09:12 10° NNW 04:15:49 64° WSW 04:17:03 55° SSW
Resurs 01 Rocket 4.1 04:16:57 12° WSW 04:18:20 14° W 04:20:33 10° WNW
ATLAS 3B R/B 3.7 04:13:48 10° NNW 04:20:40 38° NE 04:22:21 34° E
OAO 3 Rocket 4.3 04:16:05 10° WNW 04:19:18 39° W 04:19:18 39° W
Meteor 2-8 Rocket 4.4 04:21:06 68° SW 04:21:49 77° W 04:27:55 10° N
SPOT 5 3.2 04:22:35 66° W 04:22:35 66° W 04:27:37 10° NNW
Terra 2.3 04:23:27 56° N 04:23:27 56° N 04:27:13 10° N
Cosmos 2360 Rocket 3.2 04:27:32 34° NE 04:27:32 34° NE 04:30:52 10° NNE
ISS -0.7 04:25:09 10° NNW 04:25:58 14° N 04:25:58 14° N
Cosmos 2263 Rocket 2.5 04:31:02 10° NNW 04:35:57 60° WNW 04:35:57 60° WNW
Cosmos 2279 Rocket 4.2 04:51:40 63° W 04:51:40 63° W 04:57:48 10° N
ARIANE 5 R/B 4.4 05:01:18 28° NW 05:01:18 28° NW 05:03:45 10° NNW
ATLAS CENTAUR R/B 4.2 04:59:56 10° NNE 05:01:48 14° NE 05:01:48 14° NE
Cosmos 2322 Rocket 3.2 05:04:59 40° WNW 05:05:09 40° WNW 05:10:25 10° N
Cosmos 2333 Rocket 3.4 05:13:10 34° NNE 05:13:10 34° NNE 05:16:18 10° NNE
USA 215 3.3 05:05:57 10° NE 05:12:28 71° NW 05:12:52 69° WNW
Cosmos 1844 Rocket 3.8 05:10:43 10° N 05:14:32 38° NNE 05:14:32 38° NNE
Cosmos 2219 Rocket 3.6 05:31:30 32° NNE 05:31:30 32° NNE 05:34:25 10° NNE
Cosmos 2237 Rocket 4.3 06:02:09 18° NE 06:02:09 18° NE 06:03:53 10° NE
COSMOS 2428 4.0 06:05:46 36° N 06:05:46 36° N 06:09:04 10° NNE
Cosmos 2360 Rocket 4.3 06:09:13 18° WNW 06:09:41 18° WNW 06:13:31 10° NNW
ATLAS 3B R/B 3.8 06:04:27 10° NW 06:09:36 37° W 06:09:36 37° W
CZ-4C R/B 3.9 06:06:01 10° NNW 06:13:16 44° NE 06:14:45 40° E
NOSS 3-1 (C) 4.2 06:15:20 10° NNW 06:23:17 71° ENE 06:23:27 71° ENE
Cosmos 2278 Rocket 3.8 06:32:03 10° N 06:36:05 29° NE 06:36:05 29° NE
Lacrosse 5 4.3 06:43:42 16° NE 06:43:42 16° NE 06:44:48 10° NE
ATLAS CENTAUR R/B 4.3 06:37:02 10° NW 06:37:47 14° NW 06:37:47 14° NW
ATLAS 5 CENTAUR R/B 4.2 06:38:01 10° NNW 06:45:39 31° NNE 06:45:39 31° NNE
SL-16 R/B 4.3 06:49:47 19° ENE 06:49:47 19° ENE 06:51:56 10° NE
ADEOS Rocket 4.3 07:00:11 29° NW 07:00:11 29° NW 07:03:16 10° NNW
COSMOS 2455 4.4 07:18:09 25° E 07:18:09 25° E 07:21:39 10° NE
Cosmos 2315 Rocket 4.5 07:17:55 59° NNE 07:17:55 59° NNE 07:22:59 10° N
USA 267 3.3 07:26:11 72° N 07:26:11 72° N 07:32:13 10° NW
CZ-2D R/B 3.6 07:22:44 10° NNE 07:26:09 30° ENE 07:26:09 30° ENE
Lacrosse 5 rocket 4.1 07:36:40 15° NE 07:36:40 15° NE 07:37:24 10° NE
Meteor 2-5 Rocket 4.3 07:40:07 54° NNE 07:40:07 54° NNE 07:44:30 10° NNE
USA 229 DEB 3.9 07:32:48 10° NNW 07:40:08 83° WNW 07:40:08 83° WNW
USA 229 3.9 07:32:54 10° NNW 07:40:15 84° WNW 07:40:15 84° WNW
Cosmos 2237 Rocket 3.7 07:43:57 28° NW 07:43:57 28° NW 07:47:55 10° N
Centaur D-1AR AC-48 4.3 07:50:17 47° SSE 07:50:17 47° SSE 08:38:51 10° ESE
Resurs 1-4 Rocket 2.8 07:47:19 10° NNE 07:51:19 50° NE 07:51:19 50° NE
Cosmos 839 Rocket 4.3 07:47:04 10° NNW 07:53:40 82° W 07:53:40 82° W
CZ-4C R/B 3.9 07:54:33 10° NW 07:59:52 37° W 07:59:52 37° W
Cosmos 1943 Rocket 3.1 07:58:35 10° N 08:03:58 43° ENE 08:05:07 38° E
IDEFIX/ARIANE 42P 3.8 07:59:43 10° NNE 08:04:17 34° E 08:04:17 34° E
ADEOS II 2.9 08:00:52 10° NNE 08:05:23 43° E 08:05:23 43° E
Cosmos 2278 Rocket 4.1 08:16:06 10° NW 08:17:53 18° WNW 08:17:53 18° WNW
Lacrosse 5 3.6 08:22:52 24° NW 08:23:03 24° NW 08:27:10 10° NNE
NPP 3.8 08:22:45 10° N 08:27:35 63° NW 08:27:35 63° NW
Cosmos 1455 4.2 08:26:00 10° N 08:27:35 24° N 08:27:35 24° N
SL-16 R/B 3.1 08:31:39 37° WNW 08:31:39 37° WNW 08:36:34 10° N
Cosmos 2369 Rocket 4.0 08:29:19 10° N 08:34:04 28° ENE 08:38:47 10° ESE
Cosmos 2154 Rocket 4.2 08:28:38 10° N 08:34:57 69° E 08:36:41 48° SSE
Cosmos 1271 Rocket 4.0 08:35:12 10° N 08:38:05 39° NE 08:38:05 39° NE
AQUA 4.2 08:36:28 10° N 08:40:27 54° NW 08:40:27 54° NW
IRS P6 4.4 08:35:53 10° NNE 08:41:11 86° ESE 08:41:18 84° SSE
FALCON 9 R/B 4.1 08:08:49 10° WNW 08:41:19 69° SSW 08:48:59 10° SE
BREEZE-M DEB (TANK) 3.6 08:42:55 70° W 08:43:19 75° NW 08:46:36 10° NE
Cosmos 2228 4.0 08:41:12 10° N 08:45:19 41° E 08:45:55 39° ESE
SL-16 R/B 2.4 08:46:14 64° SSW 08:47:04 73° WSW 08:53:18 10° NNW
Cosmos 1603 3.7 08:53:54 57° SSE 08:54:55 71° ESE 09:00:33 10° NNE
Cosmos 2074 Rocket 4.2 08:51:18 10° NNW 08:57:21 51° W 08:57:48 50° WSW
COSMOS 2455 3.6 09:01:17 34° W 09:02:17 36° WNW 09:07:49 10° N
Cosmos 1295 Rocket 4.4 08:56:09 10° N 09:02:29 75° W 09:04:25 47° SSW
GPS 2-04 Rocket1 3.6 09:05:26 38° ENE 09:05:26 38° ENE 09:07:44 10° ENE
Cosmos 2327 Rocket 4.4 08:58:19 10° N 09:04:44 82° W 09:07:17 40° S
DNEPR-1 R/B 3.4 09:06:04 71° NW 09:06:04 71° NW 09:10:18 10° NNE
Cosmos 1328 3.9 09:06:30 65° ESE 09:06:35 66° E 09:10:31 10° NNE
CZ-2D R/B 3.5 09:03:18 10° NNW 09:07:22 23° WNW 09:07:28 23° WNW
Helios 1B rocket 3.2 09:12:10 10° NNE 09:16:04 45° E 09:17:16 35° SE
Cosmos 1610 Rocket 4.5 09:10:24 10° NNW 09:16:23 58° W 09:18:07 43° SW
MSX 4.0 09:16:02 10° N 09:21:40 56° WNW 09:23:24 41° SW
Cosmos 1606 Rocket 3.6 09:18:08 10° N 09:22:32 77° E 09:24:16 36° SSE
OAO 2 Rocket 3.2 09:21:48 48° W 09:23:12 85° NNW 09:28:10 10° ENE
Cosmos 1943 3.4 09:23:26 41° WSW 09:25:00 54° WNW 09:30:34 10° N
Helios 1A 3.4 09:28:06 43° W 09:28:06 43° W 09:31:50 10° NNW
Cosmos 2181 Rocket 4.0 09:25:18 27° S 09:28:59 86° E 09:35:11 10° N
Cosmos 1624 Rocket 4.1 09:27:33 34° S 09:29:54 79° ESE 09:35:13 10° NNE
Cosmos 962 Rocket 4.3 09:24:19 10° N 09:30:26 77° W 09:34:31 22° S
Meteor 1-11 4.5 09:26:54 22° S 09:30:40 69° E 09:36:26 10° NNE
SEDSat Delta rocket 4.0 09:28:00 35° WSW 09:30:58 70° SSE 09:37:40 10° E
Resurs 1-4 Rocket 4.1 09:29:40 10° NW 09:31:45 12° WNW 09:32:24 12° WNW
Lacrosse 4 Rocket 2.4 09:31:42 25° SSE 09:33:38 41° ESE 09:37:39 10° NE
Cosmos 1408 2.8 09:35:11 36° SSE 09:36:27 64° E 09:40:03 10° NNE
ATLAS 3B CENTAUR R/B 3.5 09:36:58 12° SSE 09:37:31 12° SE 09:39:21 10° ESE
ARIANE 5 R/B 3.6 09:33:01 10° NNE 09:37:43 39° E 09:42:22 10° SSE
Meteor 2-1 Rocket 4.1 09:32:09 10° N 09:37:52 81° W 09:42:22 16° S
Cosmos 1892 3.1 09:37:51 28° SSE 09:39:38 59° E 09:43:22 10° NNE
CBERS-1 4.0 09:36:07 10° N 09:41:12 71° WNW 09:43:43 30° SSW
Cosmos 2056 Rocket 3.4 09:39:27 33° SSW 09:41:50 79° WNW 09:47:05 10° NNE
Okean 1-7 Rocket 4.4 09:39:08 14° SSE 09:42:40 48° E 09:46:55 10° NNE
IDEFIX/ARIANE 42P 3.9 09:39:42 10° NNW 09:43:48 24° WNW 09:45:05 21° W
OAO 3 Copernicus 4.3 09:41:57 36° SW 09:43:50 65° SSE 09:48:50 10° ENE
ADEOS II 3.7 09:41:36 10° NNW 09:45:08 19° WNW 09:46:18 17° W
Cosmos 1943 Rocket 3.6 09:43:16 10° NW 09:46:34 20° W 09:46:34 20° W
FENGYUN 3A 3.7 09:43:57 10° NNE 09:49:21 84° ESE 09:53:29 18° S
ALOS 2.4 09:47:14 10° NNE 09:51:54 73° ESE 09:55:32 16° S
Cosmos 1892 Rocket 4.0 09:51:00 32° SW 09:52:27 43° W 09:56:43 10° N
Cosmos 2263 4.1 09:50:30 10° NNW 09:56:11 76° WSW 10:01:54 10° SSE
Cosmos 2251 Rocket 3.9 09:53:05 10° NNW 09:58:02 42° WSW 10:01:52 16° SSW
Cosmos 1726 Rocket 3.8 09:57:19 10° NNW 10:01:31 46° W 10:04:06 21° SSW
Cosmos 1190 Rocket 4.3 09:56:22 10° NNW 10:01:40 69° ENE 10:06:56 10° SSE
ATLAS 2A CENTAUR R/B 3.7 09:50:14 13° WSW 10:06:19 61° S 10:12:52 10° ESE
CZ-2C R/B 2.4 10:05:51 10° N 10:10:54 73° WNW 10:15:14 13° SSW
Meteor 1-29 2.7 10:09:52 10° NNE 10:13:08 87° ESE 10:15:47 15° SSW
PAYLOAD A 3.9 10:08:58 10° N 10:13:42 68° WNW 10:18:06 13° SSW
Cosmos 2366 rocket 4.1 10:08:17 10° NNW 10:14:18 58° W 10:20:22 10° S
Cosmos 2369 Rocket 2.9 10:13:07 10° NW 10:18:00 32° WSW 10:22:52 10° SSW
IRS-P3 4.1 10:13:25 10° N 10:18:43 69° WNW 10:23:59 10° SSW
Cosmos 1656 Rocket 4.0 10:14:17 10° NW 10:19:18 39° WSW 10:24:19 10° S
SL-8 Rocket 4.5 10:14:49 10° NNW 10:20:40 41° W 10:26:30 10° SSW
In-Cosmos 22 Rocket 4.5 10:22:30 10° SSW 10:28:08 55° W 10:33:51 10° N
Chunghua 1 4.4 10:25:04 10° W 10:28:33 60° SSW 10:32:02 10° ESE
SL-08 R/B 3.8 10:26:35 10° SSE 10:31:06 62° ENE 10:35:40 10° N
DELTA 2 DEB (DPAF) 4.1 10:27:46 10° S 10:32:10 72° WSW 10:36:35 10° NNW
CZ-4C R/B 4.2 10:32:40 10° SSE 10:36:07 50° ENE 10:39:46 10° N
Cosmos 1626 Rocket 4.0 10:32:23 10° SSW 10:36:34 43° W 10:40:46 10° N
Cosmos 1869 3.2 10:32:42 10° N 10:36:37 87° W 10:40:27 10° S
Genesis I 3.5 10:35:23 10° NW 10:39:15 46° WSW 10:42:58 10° S
Cosmos 2058 Rocket 4.0 10:36:11 10° NNW 10:39:56 29° W 10:43:40 10° SSW
Cosmos 407 Rocket 4.3 10:35:55 10° NW 10:40:26 30° W 10:44:55 10° SSW
Meteor 1-27 4.2 10:35:10 10° NNW 10:40:54 76° W 10:46:30 10° S
GPS 2-04 Rocket1 3.1 10:40:00 10° WNW 10:43:21 49° N 10:46:50 10° ENE
Cosmos 1825 Rocket 4.4 10:41:11 10° S 10:45:30 54° E 10:49:49 10° NNE
Cosmos 1452 Rocket 3.6 10:41:23 10° SSW 10:46:36 64° WNW 10:51:51 10° N
SeaSat 1 2.8 10:42:23 10° NNE 10:47:10 53° WNW 10:51:56 10° SW
CZ-2C R/B 3.2 10:43:45 10° NNE 10:47:22 60° ESE 10:51:00 10° S
Cosmos 1633 2.5 10:45:48 10° SSW 10:49:19 68° W 10:52:50 10° N
DELTA 2 R/B (1) 4.4 10:47:43 10° SW 10:52:58 43° SE 10:58:13 10° ENE
Cosmos 2058 3.8 10:49:20 10° S 10:53:18 53° E 10:57:19 10° NNE
Cosmos 1825 3.4 10:51:40 10° SW 10:54:40 23° WNW 10:57:40 10° NNW
